NIMBUS 2 DEB, 37891

Orbit data source: Space-Track

NIMBUS 2 DEB, 37891 is space debris in SSO originally from a launch on Sun, 15 May 1966 UTC launched from the Air Force Western Test Range (AFWTR). Debris objects in space refer to the collection of defunct objects orbiting the Earth. Examples of debris include non-operational satellites, rocket bodies, and fragments generated from explosions, collisions, or faulty payload assembly.

Loading next visibility...
Identifier
37891, 1966-040AW
Orbit
SSO
Country
Flag of USUS
Related business
Manufacturer
Unknown
Mission
Spacecraft
Bus & Motor
Unknown
Mass
Unknown
Launch date (UTC)
1966-05-15 (60 years ago)
Launch vehicle
Unknown
Launch site
Air Force Western Test Range (AFWTR)
Object type
Payload
Rocket body
Debris
Shape & HBR
Unknown shape, 0.1 m
Radar Cross Section
Small (<0.1 m²)

Expand to show TLE details & history
Last TLE update: 19 hours ago

TLE from 19 hours ago
0 NIMBUS 2 DEB
1 37891U 66040AW  25346.63281126  .00004709  00000-0  74774-2 0  9994
2 37891 100.5521 303.3666 0066018 342.4442  17.4408 13.49135804708743
Epoch: 2025-12-12T15:11Z
TLE epoch observation values (Epoch: 2025-12-12T15:11:14.892Z)
Latitude
-0.00002°
Longitude
-6.01709°
Altitude
1,031.27 km
Speed
7.359 km/s
True Right ascension
20h 13m 27s
True Declination
0° 00' 00"
Sunlit
Object was in daylight at epoch
Visualization orbit readout
Latitude
Unknown
Longitude
Unknown
Altitude
Unknown
Speed
Unknown
Apparent Right ascension
Unknown
Apparent Declination
Unknown
Sunlit
N/A
Visualization observer readout
Local Sidereal Time
08:18:40
Azimuth
Unknown
Elevation
Unknown
Doppler factor
Unknown
Orbital elements
Apogee altitude
1,121.977 km
Perigee altitude
1,023.598 km
Semi-major axis
7,450.925 km
Eccentricity
0.0066
Inclination
100.5521°
RAAN
303.3666°
Arg. of periapsis
342.4442°
True anomaly
17.66934°
Mean anomaly
17.4408°
Eccentric anomaly
17.55489°
Mean motion
3.37464 °/min
Orbital period
106.68 mins
BSTAR
0.0074774
Loading maneuver chart data...
Computing Atmospheric mass density...
Loading historical data...
Loading historical data...
Loading historical data...
Loading historical data...
Loading historical data...
Loading historical data...
Loading historical data...

Documentation

Showing up to 5 results
|